Jackson, MI

7:21 AM EDT on October 14, 2019 (GMT -0400)
Jackson County-Reynolds

Weather History for KJXN - July, 2019

Change the Weather History Date:

Monday, July 15, 2019

  Actual Average Record
Temperature  
Mean Temperature 76 °F 71 °F  
Max Temperature 91 °F 82 °F 103 °F (1977)
Min Temperature 60 °F 60 °F 44 °F (1987)
Degree Days  
Heating Degree Days 0 0  
Month to date heating degree days 0 1  
Since 1 June heating degree days 58 56  
Since 1 July heating degree days 0 1  
Cooling Degree Days 11 7  
Month to date cooling degree days 147 103  
Year to date cooling degree days 250 266  
Since 1 June cooling degree days 240 229  
Growing Degree Days 26 (Base 50)    
Moisture  
Dew Point 65 °F    
Average Humidity 75    
Maximum Humidity 97    
Minimum Humidity 52    
Precipitation  
Precipitation 0.00 in 0.12 in 1.02 in (1956)
Month to date precipitation 1.36 1.65  
Year to date precipitation 18.08 15.52  
Sea Level Pressure  
Sea Level Pressure 30.05 in    
Wind  
Wind Speed 5 mph (SSW)    
Max Wind Speed 16 mph    
Max Gust Speed 21 mph    
Visibility 10 miles    
Events      
T = Trace of Precipitation, MM = Missing Value Source: NWS Daily Summary

Daily Weather History Graph

Daily Weather History Graph

Search for Another Location

Airport or City:

Astronomy

Jul. 15, 2019 Rise Set
Actual Time 6:14 AM EDT 9:12 PM EDT
Civil Twilight 5:41 AM EDT 9:46 PM EDT
Nautical Twilight 4:58 AM EDT 10:28 PM EDT
Astronomical Twilight 4:08 AM EDT 11:18 PM EDT
Moon 8:29 PM EDT (7/15) 5:00 AM EDT (7/15)
Length of Visible Light 16h 05m
Length of Day
14h 58m
Waxing Gibbous, 98% of the Moon is Illuminated
Jul 15
Waxing Gibbous
Jul 16
Full
Jul 24
Last Quarter
Jul 31
New
Aug 7
First Quarter

Hourly Weather History & Observations

Time (EDT) Temp. Heat Index Dew Point Humidity Pressure Visibility Wind Dir Wind Speed Gust Speed Precip Events Conditions
12:56 AM 64.9 °F - 59.0 °F 81% 30.12 in 10.0 mi Calm Calm - N/A   Clear
1:56 AM 66.0 °F - 59.0 °F 78% 30.11 in 10.0 mi Calm Calm - N/A   Clear
2:56 AM 61.0 °F - 59.0 °F 93% 30.09 in 10.0 mi Calm Calm - N/A   Clear
3:56 AM 64.9 °F - 57.9 °F 78% 30.08 in 10.0 mi ENE 3.5 mph - N/A   Clear
4:56 AM 62.1 °F - 59.0 °F 90% 30.08 in 10.0 mi Calm Calm - N/A   Clear
5:56 AM 64.0 °F - 59.0 °F 84% 30.08 in 10.0 mi Calm Calm - N/A   Clear
6:56 AM 66.0 °F - 61.0 °F 84% 30.09 in 10.0 mi Calm Calm - N/A   Mostly Cloudy
7:56 AM 71.1 °F - 59.0 °F 66% 30.09 in 10.0 mi SE 6.9 mph - N/A   Clear
8:56 AM 77.0 °F - 61.0 °F 58% 30.11 in 10.0 mi SSE 5.8 mph - N/A   Clear
9:56 AM 80.1 °F 82.1 °F 66.0 °F 62% 30.10 in 10.0 mi South 5.8 mph - N/A   Mostly Cloudy
10:56 AM 82.0 °F 84.9 °F 68.0 °F 62% 30.09 in 10.0 mi SW 3.5 mph - N/A   Mostly Cloudy
11:56 AM 84.9 °F 88.8 °F 69.1 °F 59% 30.08 in 10.0 mi South 3.5 mph - N/A   Partly Cloudy
12:56 PM 88.0 °F 92.9 °F 70.0 °F 55% 30.06 in 10.0 mi South 8.1 mph - N/A   Partly Cloudy
1:56 PM 88.0 °F 92.9 °F 70.0 °F 55% 30.04 in 10.0 mi South 4.6 mph - N/A   Partly Cloudy
2:56 PM 90.0 °F 96.4 °F 71.1 °F 54% 30.02 in 10.0 mi SW 10.4 mph 20.7 mph N/A   Clear
3:56 PM 89.1 °F 96.0 °F 72.0 °F 57% 30.00 in 10.0 mi SW 12.7 mph 19.6 mph N/A   Clear
4:56 PM 89.1 °F 95.0 °F 71.1 °F 55% 29.99 in 10.0 mi WSW 9.2 mph - N/A   Partly Cloudy
5:56 PM 89.1 °F 94.1 °F 70.0 °F 53% 29.99 in 10.0 mi SW 11.5 mph - N/A   Partly Cloudy
6:56 PM 88.0 °F 92.1 °F 69.1 °F 53% 29.99 in 10.0 mi WSW 9.2 mph - N/A   Clear
7:56 PM 86.0 °F 90.1 °F 69.1 °F 57% 29.98 in 10.0 mi SW 6.9 mph - N/A   Clear
8:56 PM 82.0 °F 84.5 °F 66.9 °F 60% 30.00 in 10.0 mi SW 6.9 mph - N/A   Clear
9:56 PM 80.1 °F 82.1 °F 66.0 °F 62% 30.00 in 10.0 mi South 3.5 mph - N/A   Clear
10:56 PM 73.9 °F - 66.9 °F 79% 30.01 in 10.0 mi SW 4.6 mph - N/A   Clear
11:56 PM 73.0 °F - 68.0 °F 84% 30.02 in 10.0 mi SW 4.6 mph - N/A   Clear